This demonstration page uses our WeatherBlox Daily Observations layout. Learn more.

Left ArrowRight Arrow

41.86663, -103.66717

Hourly Observations for February 8, 2019

Temp ( °F °C ) Dew Point ( °F °C ) Humidity (%) Winds ( mph kmh ) Pressure ( in mb ) Visibility ( mi km ) Precip ( " mm )
12:53 am 00:53 Clear -10 -23.3 -14 -25.6 81 81 NE 6 9 30.55 1034 10 16 N/A
1:53 am 01:53 Clear -11 -23.9 -15 -26.1 82 82 N N/A 30.55 1035 10 16 N/A
2:53 am 02:53 Clear -13 -25 -17 -27.2 82 82 N N/A 30.54 1034 10 16 N/A
3:53 am 03:53 Clear -13 -25 -17 -27.2 82 82 N N/A 30.51 1033 10 16 N/A
4:53 am 04:53 Clear -11 -23.9 -15 -26.1 82 82 N N/A 30.51 1033 10 16 N/A
5:53 am 05:53 Clear -12 -24.4 -17 -27.2 78 78 N N/A 30.52 1034 10 16 N/A
6:53 am 06:53 Clear -14 -25.6 -17 -27.2 86 86 N N/A 30.55 1034 10 16 N/A
7:53 am 07:53 Sunny -9 -22.8 -11 -23.9 91 91 N N/A 30.55 1035 10 16 N/A
8:53 am 08:53 Sunny -2 -18.9 -6 -21.1 83 83 N N/A 30.53 1034 10 16 N/A
9:53 am 09:53 Sunny 4 -15.6 -1 -18.3 80 80 SE 5 7 30.52 1033 10 16 N/A
10:53 am 10:53 Sunny 10 -12.2 4 -15.6 76 76 ESE 6 9 30.49 1032 10 16 N/A
11:53 am 11:53 Sunny 15 -9.4 8 -13.3 74 74 ESE 8 13 30.44 1031 10 16 N/A
12:53 pm 12:53 Sunny 21 -6.1 13 -10.6 71 71 ESE 7 11 30.38 1029 10 16 N/A
1:53 pm 13:53 Sunny 25 -3.9 17 -8.3 72 72 E 12 19 30.35 1028 10 16 N/A
2:53 pm 14:53 Sunny 27 -2.8 19 -7.2 72 72 ESE 10 17 30.32 1027 10 16 N/A
3:53 pm 15:53 Sunny 26 -3.3 20 -6.7 78 78 ESE 16 26 30.30 1026 10 16 N/A
4:53 pm 16:53 Mostly Sunny 24 -4.4 18 -7.8 77 77 ESE 14 22 30.31 1026 10 16 N/A
5:53 pm 17:53 Clear 22 -5.6 17 -8.3 82 82 ESE 16 26 30.32 1027 10 16 N/A
6:53 pm 18:53 Clear 18 -7.8 15 -9.4 88 88 E 9 15 30.34 1027 10 16 N/A
7:53 pm 19:53 Clear 18 -7.8 15 -9.4 88 88 ESE 13 20 30.30 1026 10 16 N/A
8:53 pm 20:53 Clear 19 -7.2 18 -7.8 96 96 ESE 13 20 30.27 1025 10 16 N/A
9:53 pm 21:53 Clear 18 -7.8 16 -8.9 92 92 ESE 12 19 30.24 1024 10 16 N/A
10:53 pm 22:53 Clear 17 -8.3 15 -9.4 92 92 E 12 19 30.21 1023 10 16 N/A
11:53 pm 23:53 Clear 16 -8.9 14 -10 92 92 ESE 10 17 30.19 1022 10 16 N/A

Powered by AerisWeather